Wind_Speed
32 29 26 28 29 16 23 24 24 20 18 18 17 15 14 13 11 10 8 5 4 5 6 3 3 5 5 4 4 9 6 1 2 3 3 3 3 4 3 3 5 6 6 4 3 2 6 4 4 6 5 13 16 12
34 29 28 25 26 21 20 26 22 19 19 19 17 16 16 14 12 10 8 6 7 4 6 11 10 8 6 5 7 10 1 4 6 4 1 3 2 2 3 3 3 1 4 4 6 4 0 3 3 18 17 19 11 7
36 32 30 28 29 20 20 28 22 18 20 20 19 16 16 15 13 12 9 11 8 8 8 6 7 9 8 6 8 4 3 5 4 4 4 2 3 3 4 4 2 1 2 2 3 2 3 14 18 14 13 11 9 6
39 37 33 25 28 27 24 29 21 19 21 21 19 17 16 17 13 14 12 14 6 6 5 2 5 5 4 5 5 3 5 9 10 5 3 2 3 3 3 2 3 3 5 4 1 2 3 8 9 11 11 8 5 3
41 38 34 22 31 23 30 28 23 20 21 21 20 17 15 17 15 14 11 13 10 3 4 5 8 6 4 4 5 7 11 14 6 3 3 2 3 4 2 2 2 5 6 5 5 10 5 10 11 9 8 5 6 4
40 38 41 17 24 21 31 30 23 21 23 22 20 17 16 18 15 14 5 9 10 11 6 2 3 5 9 8 10 10 9 6 5 4 3 4 3 3 3 3 3 9 6 3 2 13 6 16 11 10 9 6 4 3
39 38 44 14 18 24 32 31 24 24 25 23 20 17 18 19 21 6 5 13 15 11 4 3 1 2 9 8 6 7 6 5 4 4 2 4 3 4 2 3 3 8 12 9 10 13 9 13 8 8 4 2 2 6
37 38 39 16 12 30 31 31 27 28 26 24 22 20 19 18 15 7 9 17 14 6 4 3 1 2 3 3 3 3 3 4 6 3 2 1 3 2 3 4 4 6 13 13 14 8 9 12 7 2 1 2 7 10
35 38 38 20 12 34 31 34 32 31 29 28 26 22 19 12 5 8 15 13 8 4 7 3 6 4 5 3 4 3 2 2 2 1 1 2 1 4 5 8 12 12 9 15 15 14 10 5 4 3 3 7 10 12
32 35 34 20 7 27 26 31 35 36 34 34 31 9 7 11 14 16 5 4 3 2 3 3 7 3 4 2 3 2 3 1 2 0 0 2 3 5 9 9 9 13 11 17 14 8 4 7 3 3 6 9 10 11
28 31 28 28 14 10 26 33 41 43 42 33 10 5 23 26 11 3 3 3 1 1 4 5 5 5 3 3 2 1 2 1 2 3 2 2 3 3 8 15 14 15 18 8 7 12 8 4 3 6 8 9 11 11
25 27 26 30 15 6 25 30 44 45 25 22 15 25 19 5 4 4 3 1 3 5 6 5 7 8 6 4 3 1 3 2 2 2 1 3 3 5 2 8 17 22 17 11 13 8 4 3 5 8 10 11 11 12
22 24 26 25 23 9 26 32 45 19 32 33 10 5 8 3 3 8 8 4 2 5 11 11 6 8 6 5 5 3 3 3 4 1 3 4 3 8 11 16 20 21 21 16 10 5 1 3 7 9 10 12 13 12
19 20 23 21 24 18 32 39 28 35 16 6 6 6 5 5 5 4 4 4 6 11 23 22 7 4 5 3 3 4 1 3 4 4 6 3 15 18 18 19 19 17 14 12 9 7 5 6 8 11 13 14 14 13
15 16 19 19 18 19 14 30 31 28 4 4 6 5 5 4 4 4 7 8 8 29 29 15 7 6 2 4 2 4 4 4 6 5 3 13 23 25 21 16 13 10 8 6 6 7 8 10 11 13 14 15 15 13
12 12 13 17 16 16 11 25 29 18 3 3 3 4 7 4 3 6 10 10 23 28 24 6 4 3 2 4 4 6 7 6 4 3 9 26 29 24 18 12 8 5 4 4 6 8 9 10 13 15 16 17 16 14
9 7 12 14 12 11 8 6 6 5 4 4 1 4 8 5 7 8 14 16 29 22 3 2 4 4 3 3 3 4 5 3 5 11 28 32 26 19 12 7 3 3 3 5 8 10 11 13 14 15 17 16 13 10
7 9 10 13 11 8 6 4 3 3 2 3 3 7 7 5 17 17 13 31 22 11 6 3 7 3 4 6 3 3 7 5 16 25 28 22 16 11 5 4 6 8 10 12 13 12 13 14 14 15 16 12 9 8
6 7 9 12 12 6 5 4 3 2 4 4 8 11 6 8 11 18 24 32 25 13 13 4 3 3 3 3 3 8 11 15 21 18 17 11 7 5 8 10 11 12 13 14 13 12 12 12 14 14 10 7 6 6
3 5 8 14 9 4 3 3 2 2 1 2 7 8 7 8 18 20 29 24 19 13 3 2 1 3 4 12 15 18 16 14 12 10 6 5 8 8 8 9 11 12 11 11 11 10 10 11 10 8 6 5 5 4
2 6 8 10 6 2 3 3 3 2 3 4 10 5 6 13 14 17 15 22 7 4 2 4 12 17 17 14 11 9 8 5 3 4 4 4 5 6 8 8 9 9 9 9 8 7 8 8 7 5 4 3 3 4
4 6 6 5 4 3 3 4 3 3 3 3 3 4 6 2 4 5 11 4 6 4 6 11 13 13 12 10 7 5 4 3 3 4 5 6 7 7 7 7 7 6 6 6 7 8 6 4 4 3 2 2 3 6
3 4 4 7 5 5 3 4 3 5 2 2 2 3 2 2 3 8 3 4 5 8 12 11 9 7 6 8 6 4 3 3 4 4 5 6 7 6 5 4 4 5 5 5 4 3 4 4 3 1 1 3 6 9
3 3 4 3 6 3 4 5 4 3 4 3 2 2 3 2 3 4 2 3 5 10 10 7 5 6 8 7 5 4 3 3 3 3 4 4 5 5 4 4 4 4 3 2 3 4 5 4 2 1 4 7 9 11
2 5 4 4 3 3 4 3 3 3 3 2 2 2 2 3 2 2 2 1 6 10 9 6 5 5 7 7 7 6 5 3 3 3 2 3 4 3 3 3 2 3 4 4 6 6 4 2 2 5 7 9 11 12
3 2 2 2 2 3 1 2 3 3 2 2 2 1 2 1 2 1 1 4 6 10 11 11 10 11 12 10 7 4 2 1 1 2 2 2 3 3 3 3 5 7 7 7 5 3 2 2 4 6 8 10 11 13
1 3 1 2 3 4 3 2 3 2 2 2 2 1 1 2 2 1 5 6 7 10 10 10 11 9 6 5 3 1 0 1 2 2 2 3 3 4 5 5 7 7 7 5 3 1 2 4 5 7 8 10 12 14
1 6 5 6 2 1 3 1 2 3 2 3 4 1 4 5 2 5 4 9 11 11 10 9 6 5 4 3 2 1 1 2 3 4 5 6 7 8 7 8 7 7 5 2 1 3 4 5 6 8 10 11 13 15
4 6 8 4 1 1 4 4 4 3 5 9 3 3 2 2 6 7 11 11 10 8 6 5 5 4 4 4 4 4 5 6 7 8 8 11 12 11 10 7 5 3 1 1 2 4 6 7 9 11 13 15 16 17
4 12 4 3 5 5 3 5 2 7 6 5 3 4 4 5 8 7 8 9 8 8 7 5 3 3 3 4 5 7 8 9 9 7 7 9 8 8 6 4 2 1 1 2 3 4 7 9 11 13 15 16 17 18
6 11 3 4 3 2 5 7 6 5 4 4 3 2 3 3 4 5 7 7 7 6 4 3 2 2 3 4 6 7 8 8 7 5 6 7 5 5 4 2 1 1 1 3 5 6 9 11 13 15 16 17 17 18
6 7 4 2 1 4 6 4 4 3 2 3 2 3 3 4 4 3 6 9 11 10 9 7 5 5 7 8 8 7 5 6 6 6 6 6 5 4 3 2 2 2 4 5 6 9 11 14 16 17 18 18 19 20
3 3 3 4 3 3 4 4 2 3 2 2 2 2 3 3 3 3 2 5 6 7 7 8 8 9 9 9 8 8 7 7 7 6 5 4 3 2 2 1 2 4 5 7 10 12 14 17 19 19 19 20 20 21
Wind_Direction
326 322 323 294 283 277 219 236 247 254 244 225 223 217 214 209 209 206 208 195 175 102 114 127 125 138 135 145 143 159 113 243 52 84 131 180 136 203 98 155 177 158 136 170 117 152 266 160 87 163 152 131 138 141
328 326 324 303 284 284 223 235 243 250 235 217 220 212 211 201 198 202 201 184 147 119 118 113 105 104 120 118 138 163 123 155 162 93 86 113 117 119 149 209 20 200 166 180 176 215 189 150 150 136 141 147 159 160
331 327 322 307 272 274 214 232 233 246 227 212 215 210 207 192 198 200 199 175 143 119 114 118 102 104 103 113 136 134 176 156 158 124 149 138 124 135 157 224 131 275 153 126 118 218 120 125 131 134 140 144 153 166
330 328 325 296 268 263 205 222 226 236 219 208 209 205 198 188 195 190 193 184 167 127 111 105 134 125 119 120 132 144 172 149 136 114 90 122 123 196 182 144 151 190 135 144 109 89 105 176 156 156 154 157 162 185
330 330 333 294 266 259 204 213 220 221 211 203 201 199 187 185 187 184 186 190 188 159 121 121 118 66 111 106 130 138 152 147 134 89 72 127 118 119 44 74 261 191 179 166 215 190 159 189 167 165 170 183 196 219
331 331 337 305 253 245 205 205 212 209 201 194 192 187 173 167 175 162 164 195 180 145 117 117 126 99 120 124 130 134 140 120 100 101 119 118 128 131 133 191 232 193 189 199 169 150 141 152 169 164 169 180 209 277
334 331 341 335 235 224 202 202 203 198 192 185 181 172 162 168 175 188 181 162 165 154 126 99 81 125 144 132 109 88 85 76 75 93 70 129 141 138 125 190 214 185 168 148 150 141 123 149 159 158 183 216 288 309
335 332 341 341 259 207 205 198 195 189 183 173 158 152 159 172 184 156 140 161 152 124 114 107 91 114 141 87 92 93 84 75 47 95 111 120 134 86 233 225 170 145 159 154 158 174 156 151 147 190 209 315 312 316
335 337 339 356 345 204 201 204 189 180 171 157 149 149 151 157 153 133 129 149 141 134 125 110 149 188 145 94 92 79 84 77 40 93 83 105 106 226 204 160 159 156 156 158 146 143 137 133 131 118 341 321 316 321
336 339 340 355 2 205 208 207 180 168 158 148 150 137 144 155 146 126 110 148 167 115 95 108 124 133 139 108 72 101 42 91 127 196 123 204 248 240 188 159 150 181 178 154 148 167 155 121 97 346 330 322 315 313
337 341 340 354 20 188 209 192 170 157 149 152 153 124 141 140 135 106 110 115 93 30 168 137 136 124 112 121 125 55 162 44 113 258 188 268 270 245 201 207 171 160 164 154 140 130 119 86 8 334 328 324 318 311
336 342 343 352 354 32 195 183 171 159 164 166 147 130 125 127 99 108 169 99 182 212 163 141 133 116 122 119 95 28 109 50 214 134 171 269 251 183 159 185 189 182 178 161 140 127 95 15 348 342 336 326 317 307
336 340 345 345 357 21 184 182 175 177 145 130 121 121 143 147 152 176 181 197 194 167 174 153 126 127 115 95 83 93 116 203 118 145 239 226 226 164 146 131 133 147 154 157 165 178 161 354 340 329 327 325 314 304
337 334 344 343 357 28 170 180 166 154 133 121 136 131 185 184 213 182 183 175 181 154 148 139 111 119 120 102 137 143 106 137 176 217 231 231 185 165 156 146 144 149 163 182 202 229 266 293 315 323 322 319 312 303
335 331 345 352 0 0 87 164 180 169 124 130 140 173 173 134 78 140 129 124 123 148 143 116 80 96 88 116 145 118 165 213 215 226 228 182 167 160 155 150 148 162 183 208 245 275 287 286 294 305 311 313 310 298
334 334 350 355 354 355 28 141 167 168 101 133 118 98 115 85 134 155 149 146 144 147 143 95 109 85 156 138 157 204 160 219 245 215 176 154 153 151 147 149 155 173 207 241 262 272 279 287 295 302 311 315 311 298
331 350 350 349 355 359 7 108 120 134 175 132 125 119 146 114 141 151 149 152 155 154 101 117 103 172 106 128 204 196 203 223 215 156 155 154 154 155 151 145 158 210 237 278 288 277 278 291 298 302 307 306 296 283
322 337 336 342 0 14 33 28 67 97 117 124 141 155 156 130 138 148 153 157 159 145 128 151 123 139 175 173 225 232 207 116 129 147 155 159 160 160 185 251 282 290 286 290 288 276 277 287 293 301 306 300 288 275
333 341 343 342 342 349 12 26 35 59 59 108 108 134 136 135 154 157 156 163 167 144 120 93 104 174 216 218 196 130 135 124 127 138 156 163 177 222 251 270 274 272 274 274 272 271 274 286 295 301 299 291 276 273
336 359 336 350 347 356 5 21 29 57 73 106 125 111 107 121 140 152 155 154 142 144 92 107 147 165 120 105 112 119 119 123 136 139 166 223 251 259 264 263 263 265 265 266 265 265 274 287 293 293 287 281 281 284
336 345 0 4 354 2 28 29 34 48 76 81 120 103 90 118 128 139 139 147 131 126 119 141 138 120 121 120 119 123 129 141 167 204 232 247 264 269 262 255 252 257 259 258 254 265 280 286 285 279 280 275 295 309
358 20 12 21 4 6 26 32 21 14 56 88 66 83 102 99 115 118 125 91 124 114 111 139 149 137 126 128 134 144 151 178 209 228 242 257 269 263 253 251 256 254 248 251 265 275 268 251 234 236 262 302 307 315
51 23 40 22 10 27 6 17 43 17 52 53 65 66 39 58 90 120 85 99 104 132 147 150 140 137 146 145 153 162 187 222 237 250 257 254 255 257 256 252 254 256 261 271 257 227 208 204 192 179 275 314 320 318
41 25 24 47 24 11 2 21 21 37 36 31 52 67 35 30 46 49 67 70 112 149 163 173 187 161 141 143 153 156 166 183 191 197 200 202 214 224 245 261 272 274 262 217 181 175 164 155 167 305 321 319 318 319
16 355 4 346 20 55 23 13 11 31 76 41 70 54 28 14 80 88 145 97 148 162 178 181 170 167 169 164 155 147 140 147 175 191 199 228 246 233 242 247 224 178 157 167 163 160 162 179 298 313 317 319 319 324
72 345 82 199 312 84 23 47 21 37 50 70 59 62 9 82 81 189 168 148 156 165 162 160 158 152 146 144 146 158 173 208 233 228 225 231 226 217 191 186 176 164 157 149 163 163 184 294 310 315 318 322 322 322
98 272 168 94 100 117 59 43 41 89 94 129 155 100 70 96 201 169 136 124 136 148 146 142 139 137 131 125 126 130 271 264 233 227 217 203 193 183 165 163 155 153 154 154 163 221 288 303 310 315 321 326 324 324
176 174 161 162 62 51 128 66 129 185 208 172 125 140 160 176 185 140 142 148 145 144 139 137 135 133 126 127 129 114 124 134 148 151 151 148 143 146 148 149 148 147 151 173 269 297 306 316 319 323 325 327 329 330
192 168 137 159 197 288 208 176 209 200 163 172 144 187 208 110 134 129 141 147 149 145 153 154 151 145 132 127 129 132 134 134 142 148 154 148 144 141 142 140 141 147 185 291 308 312 318 328 327 330 329 328 329 331
218 178 117 153 167 208 224 196 171 160 166 162 132 121 134 149 164 164 171 180 188 200 193 185 180 141 128 125 138 149 155 157 153 149 154 158 152 153 151 153 167 227 281 302 313 318 322 324 324 322 321 321 322 324
171 179 117 165 210 168 171 168 158 161 171 182 191 169 139 147 176 202 214 217 222 226 225 229 215 169 150 146 147 150 160 166 170 164 164 168 166 165 171 191 231 279 307 322 321 320 322 325 327 327 326 326 327 329
165 190 144 150 251 136 149 172 153 154 142 165 149 175 166 179 196 233 225 222 221 220 224 224 210 193 182 172 163 158 155 157 155 157 156 159 167 179 192 231 276 300 317 313 316 323 329 331 329 327 328 330 330 330
130 126 108 116 124 174 160 147 97 71 74 76 76 136 172 192 216 226 230 204 190 187 186 187 182 174 173 171 171 170 164 162 162 160 152 154 163 188 221 232 305 315 311 313 317 319 321 324 325 325 324 322 323 325
Height
1355 1351 1345 1341 1341 1341 1347 1353 1355 1357 1358 1360 1363 1366 1369 1371 1373 1373 1375 1375 1376 1377 1382 1383 1384 1385 1388 1391 1396 1401 1406 1408 1410 1414 1418 1425 1426 1428 1428 1431 1432 1433 1445 1451 1456 1452 1447 1432 1434 1440 1441 1443 1445 1449
1351 1344 1340 1336 1335 1336 1340 1347 1349 1351 1353 1357 1359 1362 1365 1369 1371 1372 1374 1374 1375 1377 1383 1384 1385 1386 1387 1389 1391 1396 1398 1398 1401 1413 1419 1423 1426 1431 1429 1428 1430 1431 1431 1435 1438 1438 1432 1433 1433 1435 1439 1442 1447 1449
1345 1340 1335 1330 1329 1330 1333 1340 1343 1346 1349 1353 1356 1358 1362 1366 1368 1370 1372 1373 1375 1377 1385 1387 1388 1389 1389 1390 1391 1395 1397 1397 1399 1401 1408 1416 1418 1425 1427 1428 1428 1428 1429 1431 1434 1435 1434 1434 1436 1438 1441 1443 1446 1448
1340 1333 1327 1322 1322 1325 1327 1333 1338 1341 1345 1349 1353 1355 1359 1363 1366 1368 1370 1372 1374 1376 1380 1389 1388 1390 1390 1391 1392 1393 1394 1396 1399 1402 1405 1411 1415 1421 1425 1423 1426 1427 1428 1432 1435 1435 1436 1436 1436 1438 1440 1442 1444 1445
1335 1327 1319 1314 1314 1315 1320 1327 1332 1336 1340 1345 1349 1353 1357 1360 1364 1367 1370 1371 1373 1376 1381 1387 1389 1391 1391 1392 1393 1395 1396 1397 1399 1404 1408 1413 1415 1419 1425 1426 1426 1422 1423 1427 1428 1423 1427 1430 1434 1436 1438 1440 1442 1444
1330 1320 1311 1306 1306 1309 1314 1321 1327 1331 1336 1341 1346 1351 1355 1359 1364 1366 1369 1371 1372 1373 1377 1388 1391 1392 1392 1393 1395 1397 1398 1399 1400 1403 1409 1412 1413 1416 1426 1426 1417 1417 1419 1421 1422 1424 1426 1429 1433 1435 1437 1439 1441 1441
1325 1317 1308 1300 1299 1303 1309 1316 1322 1328 1334 1339 1344 1350 1354 1358 1362 1364 1365 1366 1369 1372 1375 1388 1391 1392 1393 1394 1396 1398 1399 1400 1402 1406 1409 1410 1412 1413 1419 1421 1412 1413 1415 1419 1422 1424 1428 1430 1432 1435 1437 1437 1438 1439
1322 1313 1304 1298 1296 1298 1303 1312 1318 1325 1332 1337 1344 1350 1354 1358 1362 1364 1364 1366 1368 1371 1374 1385 1392 1393 1394 1395 1398 1399 1400 1403 1405 1408 1410 1411 1411 1413 1415 1411 1412 1413 1414 1417 1420 1423 1426 1429 1432 1433 1434 1435 1436 1436
1320 1311 1301 1293 1289 1294 1301 1307 1314 1322 1329 1336 1345 1350 1355 1358 1362 1363 1365 1368 1369 1373 1374 1382 1388 1395 1393 1395 1398 1400 1402 1406 1409 1409 1409 1411 1411 1414 1404 1406 1409 1412 1414 1416 1420 1424 1426 1429 1430 1431 1432 1433 1432 1432
1318 1311 1302 1293 1288 1292 1298 1303 1311 1319 1327 1336 1345 1349 1354 1357 1361 1365 1370 1371 1371 1371 1374 1379 1384 1389 1393 1396 1400 1402 1403 1408 1410 1411 1410 1411 1407 1400 1401 1402 1404 1408 1412 1416 1419 1423 1425 1426 1428 1429 1429 1429 1429 1428
1319 1311 1304 1295 1289 1291 1295 1302 1310 1317 1325 1333 1338 1345 1351 1356 1362 1366 1369 1371 1373 1375 1373 1376 1381 1386 1393 1395 1400 1403 1408 1410 1417 1414 1411 1413 1406 1397 1396 1398 1402 1406 1411 1414 1417 1419 1422 1423 1425 1426 1426 1426 1425 1425
1319 1313 1306 1299 1292 1290 1296 1302 1310 1312 1318 1326 1331 1341 1351 1356 1361 1365 1368 1372 1371 1373 1370 1373 1378 1383 1391 1394 1398 1405 1411 1413 1411 1412 1412 1413 1398 1394 1394 1395 1398 1404 1409 1414 1416 1418 1420 1421 1422 1422 1422 1422 1422 1422
1319 1313 1308 1302 1296 1290 1294 1299 1309 1311 1315 1324 1333 1340 1346 1355 1360 1360 1362 1362 1370 1361 1363 1367 1375 1382 1390 1394 1400 1404 1408 1415 1411 1412 1404 1400 1392 1393 1395 1396 1398 1403 1409 1413 1415 1417 1418 1419 1420 1420 1419 1419 1418 1418
1318 1314 1310 1305 1300 1291 1292 1299 1304 1310 1313 1320 1327 1338 1339 1345 1341 1344 1346 1347 1347 1350 1356 1364 1371 1377 1386 1393 1398 1401 1408 1409 1411 1410 1404 1389 1387 1390 1394 1397 1401 1404 1408 1411 1412 1414 1415 1415 1416 1416 1416 1416 1415 1414
1320 1316 1313 1309 1303 1298 1292 1297 1304 1311 1314 1318 1322 1325 1331 1334 1338 1338 1341 1344 1346 1350 1354 1364 1372 1376 1385 1392 1396 1403 1406 1403 1395 1398 1385 1376 1382 1388 1393 1397 1401 1403 1405 1407 1409 1410 1411 1412 1412 1412 1412 1412 1411 1410
1320 1318 1315 1310 1306 1301 1300 1299 1306 1311 1314 1317 1320 1326 1329 1333 1339 1340 1341 1344 1346 1351 1356 1361 1372 1380 1384 1386 1390 1393 1397 1394 1385 1379 1372 1376 1383 1388 1393 1396 1399 1401 1403 1405 1407 1408 1408 1408 1408 1408 1408 1408 1407 1406
1320 1319 1317 1314 1311 1308 1305 1304 1307 1311 1315 1316 1321 1320 1323 1328 1331 1336 1339 1343 1347 1352 1360 1363 1369 1374 1381 1383 1387 1385 1385 1377 1370 1371 1375 1380 1384 1389 1393 1396 1399 1401 1402 1403 1404 1405 1405 1404 1404 1404 1404 1403 1402 1402
1321 1320 1318 1316 1313 1311 1309 1308 1309 1311 1315 1317 1319 1321 1325 1326 1328 1334 1337 1342 1348 1353 1357 1363 1365 1373 1375 1380 1380 1371 1368 1369 1370 1374 1380 1385 1389 1391 1393 1395 1396 1397 1398 1399 1399 1400 1400 1400 1401 1401 1399 1399 1399 1399
1321 1320 1319 1317 1315 1314 1313 1313 1313 1314 1317 1318 1320 1323 1325 1327 1330 1334 1336 1342 1349 1353 1357 1362 1368 1371 1371 1367 1367 1367 1369 1370 1373 1378 1383 1386 1389 1391 1392 1393 1395 1395 1396 1395 1396 1396 1397 1397 1397 1396 1396 1396 1396 1397
1322 1321 1320 1318 1317 1316 1315 1316 1315 1317 1319 1321 1322 1325 1326 1328 1331 1334 1340 1345 1348 1354 1359 1364 1364 1364 1365 1367 1368 1370 1373 1375 1378 1381 1384 1387 1388 1389 1390 1391 1392 1392 1392 1392 1393 1394 1394 1394 1394 1393 1394 1394 1394 1395
1323 1322 1321 1320 1318 1318 1318 1318 1318 1319 1320 1321 1323 1325 1328 1332 1334 1338 1343 1347 1350 1354 1359 1361 1363 1364 1366 1368 1371 1373 1375 1378 1380 1382 1383 1384 1386 1386 1387 1388 1389 1389 1389 1389 1390 1390 1391 1391 1391 1392 1393 1393 1393 1394
1325 1324 1323 1321 1321 1321 1321 1321 1321 1321 1322 1324 1325 1326 1330 1334 1335 1338 1342 1347 1351 1353 1357 1361 1363 1364 1365 1367 1369 1371 1373 1375 1377 1379 1380 1381 1381 1383 1385 1385 1386 1386 1386 1387 1387 1387 1387 1388 1389 1390 1391 1392 1393 1392
1327 1326 1325 1325 1324 1323 1326 1324 1324 1324 1324 1326 1327 1329 1332 1334 1336 1339 1342 1345 1350 1354 1358 1362 1363 1364 1364 1365 1367 1369 1371 1373 1374 1375 1376 1377 1378 1379 1380 1381 1381 1382 1383 1383 1384 1385 1386 1387 1388 1389 1390 1391 1391 1391
1329 1328 1328 1328 1329 1329 1328 1327 1327 1328 1327 1328 1331 1335 1338 1338 1338 1340 1344 1348 1351 1354 1358 1360 1361 1361 1362 1363 1366 1368 1369 1370 1371 1372 1374 1375 1376 1377 1377 1378 1378 1379 1380 1381 1382 1384 1385 1386 1388 1388 1389 1389 1389 1388
1333 1335 1334 1334 1332 1333 1332 1332 1332 1332 1334 1335 1337 1340 1342 1341 1343 1347 1349 1350 1350 1352 1354 1356 1357 1359 1361 1363 1366 1368 1369 1371 1372 1372 1372 1373 1373 1374 1376 1377 1377 1378 1380 1380 1382 1384 1385 1386 1387 1387 1387 1387 1386 1385
1338 1336 1337 1337 1337 1338 1337 1336 1335 1336 1337 1338 1342 1343 1342 1343 1345 1347 1350 1350 1352 1355 1356 1358 1360 1361 1363 1365 1366 1367 1369 1369 1370 1371 1371 1371 1372 1374 1375 1376 1377 1378 1380 1381 1383 1384 1385 1386 1386 1386 1385 1384 1383 1382
1341 1337 1335 1336 1336 1337 1339 1339 1338 1338 1340 1341 1342 1344 1344 1346 1348 1351 1350 1351 1352 1355 1357 1358 1360 1361 1362 1364 1365 1366 1366 1367 1368 1369 1369 1370 1371 1373 1374 1376 1377 1379 1380 1382 1383 1384 1384 1384 1384 1384 1383 1381 1380 1378
1334 1335 1338 1338 1338 1338 1341 1342 1343 1344 1342 1341 1342 1346 1345 1344 1347 1349 1349 1351 1354 1357 1358 1359 1360 1361 1362 1362 1363 1364 1365 1366 1367 1368 1369 1370 1371 1373 1375 1376 1378 1380 1381 1381 1382 1382 1383 1383 1382 1381 1380 1379 1378 1375
1333 1333 1335 1338 1339 1339 1338 1340 1339 1338 1339 1340 1343 1345 1345 1345 1347 1349 1351 1353 1355 1357 1358 1359 1359 1360 1361 1361 1362 1363 1364 1366 1368 1369 1370 1371 1373 1375 1376 1377 1378 1379 1380 1380 1381 1381 1381 1380 1379 1378 1377 1376 1374 1371
1331 1332 1334 1337 1338 1338 1336 1336 1337 1337 1339 1340 1341 1343 1345 1347 1348 1350 1351 1353 1355 1356 1357 1357 1358 1358 1359 1360 1362 1363 1365 1367 1368 1370 1371 1372 1373 1375 1376 1376 1377 1378 1379 1380 1380 1380 1379 1378 1377 1376 1374 1372 1369 1367
1328 1330 1332 1333 1334 1334 1334 1336 1336 1337 1339 1340 1341 1343 1344 1346 1347 1348 1349 1350 1351 1352 1353 1354 1355 1356 1358 1360 1362 1363 1365 1367 1368 1369 1370 1372 1373 1374 1375 1376 1377 1378 1378 1378 1378 1378 1377 1376 1374 1372 1370 1368 1365 1362
1328 1329 1330 1334 1334 1335 1336 1337 1337 1338 1339 1340 1341 1343 1344 1345 1346 1347 1347 1348 1349 1351 1352 1353 1355 1356 1358 1360 1362 1364 1365 1367 1368 1369 1370 1371 1372 1373 1374 1375 1376 1376 1376 1376 1376 1375 1373 1372 1370 1368 1366 1363 1361 1358
1326 1327 1329 1331 1333 1334 1335 1337 1338 1340 1341 1341 1342 1343 1343 1345 1345 1346 1345 1346 1348 1349 1351 1353 1354 1356 1358 1360 1362 1364 1366 1367 1368 1369 1370 1371 1372 1373 1374 1375 1375 1375 1375 1374 1373 1372 1371 1369 1366 1364 1362 1359 1357 1354